[[{"header":{"parameterUnit":"m.s-1","parameterCategory":1,"la1":30.2991,"la2":30.254,"lo1":-89.0895,"lo2":-89.0444,"dy":0.0017,"dx":0.0017,"nx":28,"ny":28,"refTime":"2025-11-24T03:00:00:Z","depth":0,"parameterNumber":2,"parameterNumberName":"U-component_of_WINDS"},"data":[0,0,0,0,0,0,0,0,0,0,0,0,0,0,0,0,0,0,0,0,0,0,0,0,0,0,0,0,0,0,0,0,0,0,0,0,0,0,0,0,0,0,0,0,0,0,0,0,0,0,0,0,0,0,0,0,0,0,-2.6192,-2.6193,0,-2.6249,-2.6249,-2.625,-2.6203,-2.6201,-2.6199,-2.6197,-2.6257,-2.626,-2.6264,0,0,0,0,0,0,0,0,0,0,0,0,0,-2.6046,-2.6049,-2.6192,-2.6193,-2.6193,-2.6249,-2.6249,-2.625,-2.6203,-2.6201,-2.6198,-2.6196,-2.6256,-2.626,-2.6264,0,0,0,0,0,0,0,0,0,0,0,0,0,-2.6107,-2.605,-2.6192,-2.6177,-2.6176,-2.6249,-2.6249,-2.625,-2.6204,-2.6201,-2.6198,-2.6195,-2.6254,-2.6259,-2.6264,-2.6356,0,0,-2.628,-2.6283,0,0,0,0,0,0,0,0,-2.6104,-2.6112,-2.6178,-2.6178,-2.6177,-2.6216,-2.622,-2.6286,-2.6204,-2.6193,-2.6197,-2.6193,-2.6246,-2.6251,-2.6269,-2.6359,-2.6361,-2.6281,-2.6284,-2.6286,-2.6288,0,0,0,0,0,0,0,-2.6099,-2.611,-2.6214,-2.6179,-2.6178,-2.6168,-2.6173,-2.6232,-2.6235,-2.6194,-2.619,-2.6198,-2.6245,-2.6264,-2.627,-2.6362,-2.6281,-2.6285,-2.6288,-2.629,-2.6532,-2.6535,0,0,0,0,0,0,-2.6096,-2.6106,-2.6213,-2.6216,-2.6132,-2.6173,-2.6179,-2.6206,-2.6235,-2.6236,-2.62,-2.6195,-2.6256,-2.6264,-2.6272,-2.6381,-2.6286,-2.6291,-2.6294,-2.6529,-2.6533,-2.6536,0,0,0,0,0,0,-2.6093,-2.6106,-2.621,-2.6161,-2.6173,-2.6179,-2.621,-2.6209,-2.6228,-2.6239,-2.624,-2.6219,-2.6254,-2.6264,-2.6336,-2.6382,-2.6293,-2.6298,-2.6525,-2.653,-2.6535,-2.66,0,0,0,0,0,0,-2.6089,-2.6106,-2.6139,-2.6162,-2.6176,-2.6273,-2.6213,-2.6212,-2.6236,-2.6231,-2.6257,-2.6259,-2.6253,-2.6328,-2.6341,-2.6388,-2.6302,-2.6521,-2.6527,-2.6533,-2.6594,-2.6606,-2.6618,0,0,0,0,0,-2.6084,-2.6156,-2.6141,-2.6154,-2.6218,-2.6275,-2.6283,-2.6275,-2.624,-2.6275,-2.6283,-2.6258,-2.6376,-2.6336,-2.635,-2.6399,-2.6518,-2.6525,-2.6533,-2.6588,-2.6604,-2.6617,0,0,0,0,0,0,-2.6139,-2.6158,-2.6142,-2.6223,-2.6248,-2.6267,-2.631,-2.6292,-2.6327,-2.632,-2.6309,-2.6315,-2.639,-2.6402,-2.6357,-2.649,-2.6441,-2.6452,-2.6479,-2.6494,-2.6506,-2.6501,-2.6306,0,0,0,0,0,-2.616,-2.6204,-2.6219,-2.6289,-2.6302,-2.6304,-2.6329,-2.632,-2.6346,-2.6356,-2.6369,-2.6396,-2.6439,-2.6467,-2.6508,-2.6596,-2.6601,-2.6637,-2.6649,-2.6659,-2.6667,-2.6716,-2.6732,-2.6561,-2.6561,-2.6561,0,0,-2.6204,-2.6221,-2.6249,-2.63,-2.6318,-2.6365,-2.6313,-2.6365,-2.6399,-2.6364,-2.6432,-2.6443,-2.6472,-2.6552,-2.6588,-2.6564,-2.6716,-2.6668,-2.6676,-2.6679,-2.6725,-2.6741,-2.6756,-2.6566,-2.6565,-2.6564,0,0,-2.6309,-2.6326,-2.6385,-2.6405,-2.6434,-2.6435,-2.645,-2.6473,-2.6479,-2.6546,-2.6521,-2.6564,-2.6638,-2.666,-2.6681,-2.6797,-2.6775,-2.681,-2.6872,-2.692,-2.6933,-2.6945,-2.6986,-2.7001,-2.6819,-2.682,-2.682,0,-2.636,-2.6429,-2.6419,-2.6472,-2.6496,-2.6467,-2.6528,-2.6548,-2.6589,-2.6606,-2.6579,-2.6672,-2.669,-2.6775,-2.6804,-2.6822,-2.6839,-2.6806,-2.6932,-2.6944,-2.6955,-2.6994,-2.7009,-2.6824,-2.6823,-2.6823,-2.6822,0,-2.6491,-2.6539,-2.6584,-2.6624,-2.6653,-2.671,-2.671,-2.6741,-2.6731,-2.6736,-2.6807,-2.6827,-2.6871,-2.6891,-2.6882,-2.6976,-2.696,-2.6933,-2.6884,-2.6975,-2.7012,-2.7027,-2.6829,-2.6828,-2.6827,-2.6826,0,0,-2.6628,-2.6663,-2.668,-2.6698,-2.6729,-2.6766,-2.6823,-2.6866,-2.6893,-2.6923,-2.6971,-2.7036,-2.7011,-2.7035,-2.7028,-2.707,-2.7161,-2.7038,-2.7038,-2.7059,-2.7267,-2.7286,-2.7303,-2.7148,-2.7151,-2.7153,-2.7264,0,-2.6733,-2.6831,-2.6825,-2.6917,-2.6962,-2.6937,-2.6986,-2.7011,-2.7018,-2.7059,-2.7067,-2.7113,-2.7076,-2.7091,-2.7131,-2.7141,-2.7202,-2.7133,-2.7192,-2.7194,-2.7184,-2.7322,-2.7343,-2.7446,-2.7278,-2.7281,-2.7282,0,-2.6868,-2.6902,-2.6999,-2.7024,-2.7043,-2.7088,-2.7127,-2.7166,-2.7195,-2.7197,-2.7225,-2.7212,-2.7271,-2.7222,-2.7304,-2.7257,-2.7282,-2.7291,-2.7295,-2.7298,-2.7243,-2.7329,-2.7479,-2.7495,-2.7305,-2.7303,-2.7301,0,-2.6958,-2.7029,-2.7096,-2.7112,-2.7143,-2.7176,-2.719,-2.7216,-2.7243,-2.7279,-2.7296,-2.7339,-2.7362,-2.7395,-2.7395,-2.7359,-2.7478,-2.7429,-2.7482,-2.7482,-2.7506,-2.7504,-2.7661,-2.7524,-2.7524,-2.7524,-2.7523,0,-2.7075,-2.7135,-2.7136,-2.7178,-2.7245,-2.7239,-2.7306,-2.7317,-2.7341,-2.7385,-2.7367,-2.7408,-2.7406,-2.7449,-2.7449,-2.7517,-2.7528,-2.7532,-2.7531,-2.7533,-2.7532,-2.7547,-2.7539,-2.7528,-2.7527,-2.7526,-2.7526,0,-2.7185,-2.7189,-2.726,-2.7285,-2.7292,-2.7341,-2.7362,-2.7402,-2.7408,-2.7464,-2.7477,-2.7488,-2.7537,-2.7541,-2.7598,-2.7599,-2.7681,-2.7673,-2.7671,-2.7669,-2.7721,-2.7716,-2.7892,-2.7915,-2.7765,-2.7766,-2.7767,0,-2.7259,-2.7304,-2.7334,-2.7362,-2.7378,-2.7423,-2.7451,-2.7448,-2.7478,-2.7515,-2.7551,-2.7599,-2.7637,-2.7718,-2.7731,-2.7776,-2.7768,-2.7827,-2.7774,-2.7775,-2.7768,-2.7764,-2.7769,-2.7836,-2.7838,-2.7839,-2.784,0,-2.7389,-2.7389,-2.7428,-2.747,-2.7503,-2.7536,-2.7566,-2.7591,-2.7591,-2.7626,-2.7676,-2.7706,-2.7766,-2.7814,-2.7858,-2.7874,-2.7858,-2.7857,-2.7872,-2.7873,-2.7869,-2.7871,-2.7697,-2.7852,-2.7851,-2.785,-2.785,-2.7849,-2.7482,-2.7522,-2.7549,-2.7595,-2.7618,-2.7647,-2.7686,-2.7698,-2.7739,-2.7787,-2.7783,-2.7839,-2.7869,-2.7926,-2.7947,-2.7991,-2.7971,-2.7993,-2.7998,-2.8003,-2.8008,-2.7864,-2.8,-2.7999,-2.7999,-2.7999,-2.7998,0,-2.7611,-2.7628,-2.767,-2.7713,-2.7749,-2.7731,-2.7765,-2.7796,-2.7846,-2.7875,-2.7913,-2.7972,-2.8019,-2.8037,-2.8084,-2.8116,-2.811,-2.8128,-2.8125,-2.8129,-2.8023,-2.8005,-2.8133,-2.8133,-2.8133,-2.8133,-2.8133,-2.8132,-2.7682,-2.7748,-2.7752,-2.783,-2.7847,-2.7901,-2.7921,-2.7949,-2.7972,-2.8038,-2.8078,-2.8089,-2.8114,-2.8163,-2.8206,-2.821,-2.8228,-2.8249,-2.825,-2.815,-2.8137,-2.8124,-2.8107,-2.8253,-2.8254,-2.8353,-2.8353,-2.8354]},{"header":{"parameterUnit":"m.s-1","parameterCategory":1,"la1":30.2991,"la2":30.254,"lo1":-89.0895,"lo2":-89.0444,"dy":0.0017,"dx":0.0017,"nx":28,"ny":28,"refTime":"2025-11-24T03:00:00:Z","depth":0,"parameterNumber":3,"parameterNumberName":"V-component_of_WINDS"},"data":[0,0,0,0,0,0,0,0,0,0,0,0,0,0,0,0,0,0,0,0,0,0,0,0,0,0,0,0,0,0,0,0,0,0,0,0,0,0,0,0,0,0,0,0,0,0,0,0,0,0,0,0,0,0,0,0,0,0,1.8928,1.893,0,1.906,1.9061,1.9063,1.9174,1.9175,1.9176,1.9177,1.9307,1.9309,1.9311,0,0,0,0,0,0,0,0,0,0,0,0,0,1.8769,1.8771,1.8928,1.893,1.8931,1.906,1.9061,1.9063,1.9173,1.9175,1.9176,1.9178,1.9306,1.9309,1.9311,0,0,0,0,0,0,0,0,0,0,0,0,0,1.8863,1.8772,1.8928,1.9002,1.901,1.9059,1.9061,1.9064,1.9173,1.9175,1.9177,1.9178,1.9305,1.9308,1.9312,1.9296,0,0,1.9322,1.9324,0,0,0,0,0,0,0,0,1.8857,1.8869,1.8989,1.8997,1.9006,1.9102,1.9053,1.9141,1.9173,1.9111,1.9177,1.9179,1.9237,1.9246,1.9267,1.9303,1.9308,1.9323,1.9325,1.9326,1.9327,0,0,0,0,0,0,0,1.8851,1.8863,1.898,1.8991,1.9001,1.9028,1.9043,1.907,1.9162,1.9116,1.9125,1.9139,1.9242,1.9263,1.927,1.931,1.9323,1.9326,1.9328,1.9329,1.9342,1.9341,0,0,0,0,0,0,1.8833,1.8857,1.8976,1.8984,1.8935,1.9029,1.9046,1.9069,1.9162,1.9178,1.9137,1.9144,1.9256,1.9266,1.9275,1.9266,1.9326,1.9329,1.9331,1.9344,1.9342,1.934,0,0,0,0,0,0,1.883,1.8843,1.8971,1.8923,1.8941,1.903,1.9055,1.9071,1.9093,1.9178,1.9194,1.9143,1.9258,1.927,1.9291,1.9272,1.9331,1.9334,1.9346,1.9343,1.9341,1.9244,0,0,0,0,0,0,1.8824,1.8841,1.8837,1.8922,1.8944,1.8985,1.9054,1.9072,1.9099,1.9108,1.9187,1.9202,1.926,1.9286,1.9295,1.9277,1.9337,1.9348,1.9345,1.9342,1.925,1.9239,1.9229,0,0,0,0,0,1.8818,1.8803,1.8836,1.885,1.894,1.8984,1.8996,1.9065,1.9097,1.9093,1.9148,1.9199,1.9272,1.9287,1.9298,1.9281,1.935,1.9346,1.9342,1.9254,1.9241,1.9229,0,0,0,0,0,0,1.871,1.8815,1.8853,1.8865,1.8915,1.9003,1.9,1.9048,1.9089,1.9096,1.9179,1.9196,1.9208,1.9246,1.9261,1.9272,1.9318,1.9316,1.9247,1.9235,1.9225,1.9216,1.934,0,0,0,0,0,1.8688,1.8716,1.8805,1.8807,1.883,1.891,1.8932,1.8981,1.9036,1.9057,1.9113,1.9163,1.9198,1.9218,1.9254,1.9255,1.9275,1.9249,1.9239,1.923,1.9228,1.9233,1.9224,1.9327,1.9327,1.9327,0,0,1.8642,1.8703,1.8715,1.8787,1.8831,1.8858,1.8927,1.8952,1.8972,1.906,1.9085,1.9127,1.9188,1.92,1.9207,1.9232,1.9204,1.9226,1.9218,1.9221,1.9228,1.9219,1.921,1.9325,1.9325,1.9326,0,0,1.8572,1.862,1.8628,1.8672,1.8739,1.8793,1.8794,1.8875,1.8908,1.8934,1.9001,1.9026,1.9082,1.9124,1.9152,1.9099,1.9148,1.9108,1.9056,1.906,1.9052,1.9045,1.9027,1.902,1.9106,1.9105,1.9105,0,1.8505,1.855,1.8625,1.8647,1.8677,1.876,1.8768,1.8806,1.8881,1.8899,1.8926,1.9001,1.9048,1.9071,1.9058,1.9078,1.9083,1.91,1.9047,1.9041,1.9036,1.902,1.9013,1.91,1.9101,1.9101,1.9102,0,1.8466,1.8495,1.8493,1.8566,1.8595,1.8609,1.8687,1.8707,1.8754,1.8805,1.883,1.8889,1.894,1.8949,1.8993,1.8979,1.8992,1.9032,1.9079,1.9019,1.9006,1.9,1.9093,1.9095,1.9096,1.9097,0,0,1.8331,1.8447,1.8445,1.848,1.8561,1.8585,1.8603,1.8654,1.8671,1.8719,1.8737,1.8784,1.8822,1.8854,1.8904,1.8908,1.8864,1.8947,1.895,1.8931,1.8853,1.8824,1.8816,1.8897,1.8896,1.8895,1.8848,0,1.8275,1.8315,1.8384,1.8401,1.843,1.8509,1.8525,1.8576,1.8624,1.8654,1.8706,1.8739,1.8786,1.8806,1.8813,1.8868,1.885,1.8872,1.8914,1.8914,1.8898,1.8809,1.8778,1.8731,1.8844,1.8843,1.8842,0,1.8216,1.8263,1.8283,1.8364,1.8379,1.8392,1.8446,1.8474,1.8533,1.8567,1.8604,1.8659,1.8682,1.8725,1.8758,1.8771,1.8792,1.8822,1.8822,1.8829,1.8875,1.8815,1.8717,1.8711,1.8834,1.8835,1.8835,0,1.8118,1.8186,1.8208,1.8234,1.8329,1.8337,1.8376,1.8437,1.8464,1.851,1.8529,1.8576,1.8602,1.8636,1.8703,1.8728,1.8729,1.8777,1.8758,1.8757,1.8756,1.8755,1.8662,1.8767,1.8767,1.8767,1.8767,0,1.805,1.8059,1.8165,1.8178,1.8192,1.8271,1.8281,1.8328,1.8382,1.8405,1.8475,1.8495,1.8581,1.8611,1.8663,1.8683,1.8693,1.8722,1.8736,1.8717,1.8713,1.8732,1.8738,1.8765,1.8765,1.8766,1.8766,0,1.7943,1.8014,1.8044,1.8131,1.8153,1.8159,1.8234,1.8249,1.8302,1.833,1.8341,1.8423,1.8462,1.8532,1.8589,1.8624,1.8634,1.8657,1.8615,1.8624,1.8602,1.8604,1.8519,1.8512,1.8619,1.8618,1.8617,0,1.7896,1.7906,1.7995,1.8017,1.8054,1.8087,1.8116,1.8194,1.822,1.829,1.8297,1.8342,1.8382,1.844,1.8504,1.8549,1.8574,1.8541,1.8581,1.8562,1.8576,1.8575,1.8577,1.8532,1.8531,1.8529,1.8528,0,1.7804,1.784,1.7879,1.7931,1.7964,1.8008,1.8056,1.8069,1.8157,1.8184,1.8226,1.8257,1.8317,1.8361,1.8416,1.8455,1.8506,1.8515,1.8514,1.8495,1.8471,1.8485,1.8592,1.8517,1.8518,1.8519,1.852,1.852,1.7727,1.7741,1.7806,1.7848,1.7893,1.7936,1.7956,1.8011,1.8048,1.8105,1.8148,1.8187,1.8246,1.8325,1.8362,1.8393,1.8416,1.8414,1.8413,1.8412,1.8405,1.8465,1.8402,1.8403,1.8403,1.8404,1.8404,0,1.7641,1.7688,1.7726,1.7792,1.7824,1.7871,1.7927,1.7951,1.7985,1.8037,1.8076,1.8125,1.8168,1.8235,1.8283,1.8295,1.832,1.8305,1.8306,1.8314,1.838,1.8377,1.8284,1.8284,1.8284,1.8284,1.8285,1.8285,1.7601,1.7626,1.7669,1.7717,1.7763,1.7804,1.7831,1.7872,1.7914,1.7966,1.8003,1.8047,1.8105,1.8159,1.82,1.8219,1.8234,1.8212,1.8238,1.8298,1.8309,1.832,1.8318,1.8214,1.8214,1.817,1.817,1.8169]}]]